| time (UTC) | temp F | wind direction | speed knots | gust knots | rain 1hr in | rain 24hr in | rain mn in | humidity % | barometer mb |
| 20260505124909 | 67 | 250 | 1.7 | 1.7 | 0.00 | 0.00 | 0.00 | 59 | 1013.3 |
| 20260505124407 | 66 | 214 | 1.7 | 1.7 | 0.00 | 0.00 | 0.00 | 59 | 1013.2 |
| 20260505123903 | 65 | 196 | 0.9 | 1.7 | 0.00 | 0.00 | 0.00 | 61 | 1013.1 |
| 20260505123359 | 64 | 253 | 2.6 | 2.6 | 0.00 | 0.00 | 0.00 | 62 | 1012.9 |
| 20260505122855 | 64 | 282 | 0.9 | 1.7 | 0.00 | 0.00 | 0.00 | 62 | 1013.1 |
| 20260505122353 | 64 | 241 | 2.6 | 2.6 | 0.00 | 0.00 | 0.00 | 63 | 1013.0 |
| 20260505121849 | 64 | 248 | 1.7 | 1.7 | 0.00 | 0.00 | 0.00 | 63 | 1013.1 |
| 20260505121346 | 63 | 210 | 1.7 | 2.6 | 0.00 | 0.00 | 0.00 | 64 | 1013.1 |
| 20260505120842 | 63 | 298 | 0.9 | 0.9 | 0.00 | 0.00 | 0.00 | 64 | 1012.9 |
| 20260505120338 | 63 | 248 | 2.6 | 4.3 | 0.00 | 0.00 | 0.00 | 64 | 1012.9 |
| 20260505115837 | 62 | 272 | 0.9 | 2.6 | 0.00 | 0.00 | 0.00 | 65 | 1012.7 |
| 20260505115334 | 62 | 277 | 1.7 | 1.7 | 0.00 | 0.00 | 0.00 | 65 | 1012.8 |
| 20260505114832 | 62 | 258 | 1.7 | 2.6 | 0.00 | 0.00 | 0.00 | 65 | 1012.8 |
| 20260505114328 | 62 | 197 | 2.6 | 2.6 | 0.00 | 0.00 | 0.00 | 67 | 1012.9 |
| 20260505113825 | 61 | 265 | 2.6 | 2.6 | 0.00 | 0.00 | 0.00 | 67 | 1012.7 |
| 20260505113322 | 61 | 269 | 0.9 | 0.9 | 0.00 | 0.00 | 0.00 | 68 | 1013.0 |
| 20260505112817 | 61 | 192 | 1.7 | 1.7 | 0.00 | 0.00 | 0.00 | 68 | 1012.9 |
| 20260505112315 | 61 | 222 | 1.7 | 1.7 | 0.00 | 0.00 | 0.00 | 69 | 1012.7 |
| 20260505111810 | 60 | 280 | 1.7 | 1.7 | 0.00 | 0.00 | 0.00 | 69 | 1012.5 |
| 20260505111306 | 60 | 262 | 0.9 | 0.9 | 0.00 | 0.00 | 0.00 | 69 | 1012.5 |
| 20260505110802 | 60 | 265 | 0.9 | 0.9 | 0.00 | 0.00 | 0.00 | 69 | 1012.4 |
| 20260505110300 | 60 | 273 | 0.9 | 1.7 | 0.00 | 0.00 | 0.00 | 70 | 1012.5 |
| 20260505101734 | 59 | 236 | 2.6 | 4.3 | 0.00 | 0.00 | 0.00 | 71 | 1012.3 |
| 20260505101230 | 60 | 244 | 2.6 | 4.3 | 0.00 | 0.00 | 0.00 | 72 | 1012.2 |
| 20260505100727 | 60 | 247 | 2.6 | 2.6 | 0.00 | 0.00 | 0.00 | 71 | 1012.1 |
| 20260505100223 | 60 | 203 | 1.7 | 2.6 | 0.00 | 0.00 | 0.00 | 71 | 1011.9 |
| 20260505095718 | 60 | 243 | 1.7 | 2.6 | 0.00 | 0.00 | 0.00 | 71 | 1012.0 |
| 20260505095217 | 60 | 231 | 2.6 | 4.3 | 0.00 | 0.00 | 0.00 | 71 | 1011.9 |
| 20260505094712 | 60 | 255 | 1.7 | 2.6 | 0.00 | 0.00 | 0.00 | 71 | 1011.9 |
| 20260505094208 | 60 | 232 | 1.7 | 2.6 | 0.00 | 0.00 | 0.00 | 71 | 1011.9 |
| 20260505093705 | 60 | 190 | 1.7 | 1.7 | 0.00 | 0.00 | 0.00 | 71 | 1011.9 |
| 20260505093202 | 60 | 218 | 2.6 | 4.3 | 0.00 | 0.00 | 0.00 | 70 | 1011.8 |
| 20260505092659 | 60 | 267 | 2.6 | 2.6 | 0.00 | 0.00 | 0.00 | 70 | 1011.8 |
| 20260505092158 | 60 | 225 | 2.6 | 2.6 | 0.00 | 0.00 | 0.00 | 70 | 1011.7 |
| 20260505091654 | 60 | 227 | 2.6 | 4.3 | 0.00 | 0.00 | 0.00 | 70 | 1012.0 |
| 20260505091152 | 60 | 205 | 1.7 | 2.6 | 0.00 | 0.00 | 0.00 | 70 | 1011.8 |
| 20260505090649 | 60 | 250 | 3.5 | 5.2 | 0.00 | 0.00 | 0.00 | 69 | 1011.6 |
| 20260505090148 | 60 | 190 | 5.2 | 6.1 | 0.00 | 0.00 | 0.00 | 70 | 1011.8 |
| 20260505085645 | 60 | 238 | 4.3 | 5.2 | 0.00 | 0.00 | 0.00 | 69 | 1011.7 |
| 20260505085143 | 60 | 250 | 2.6 | 2.6 | 0.00 | 0.00 | 0.00 | 70 | 1011.8 |
| 20260505084640 | 60 | 184 | 2.6 | 2.6 | 0.00 | 0.00 | 0.00 | 70 | 1011.7 |
| 20260505084139 | 60 | 223 | 2.6 | 4.3 | 0.00 | 0.00 | 0.00 | 70 | 1011.9 |
| 20260505083636 | 60 | 219 | 1.7 | 2.6 | 0.00 | 0.00 | 0.00 | 71 | 1011.8 |
| 20260505083132 | 60 | 271 | 1.7 | 2.6 | 0.00 | 0.00 | 0.00 | 72 | 1011.8 |
| 20260505082628 | 60 | 259 | 1.7 | 2.6 | 0.00 | 0.00 | 0.00 | 72 | 1011.8 |
| 20260505082126 | 60 | 238 | 2.6 | 2.6 | 0.00 | 0.00 | 0.00 | 72 | 1012.0 |
| 20260505081621 | 60 | 237 | 2.6 | 2.6 | 0.00 | 0.00 | 0.00 | 72 | 1012.0 |
| 20260505081119 | 59 | 258 | 0.9 | 1.7 | 0.00 | 0.00 | 0.00 | 71 | 1011.9 |
| 20260505080615 | 59 | 249 | 1.7 | 1.7 | 0.00 | 0.00 | 0.00 | 72 | 1011.9 |
| 20260505080112 | 59 | 251 | 1.7 | 1.7 | 0.00 | 0.00 | 0.00 | 72 | 1011.7 |
| 20260505075608 | 60 | 234 | 1.7 | 1.7 | 0.00 | 0.00 | 0.00 | 71 | 1011.9 |
| 20260505075104 | 60 | 260 | 1.7 | 1.7 | 0.00 | 0.00 | 0.00 | 71 | 1011.9 |
| 20260505074601 | 60 | 237 | 1.7 | 1.7 | 0.00 | 0.00 | 0.00 | 71 | 1011.8 |
| 20260505074059 | 60 | 259 | 2.6 | 2.6 | 0.00 | 0.00 | 0.00 | 70 | 1011.8 |
| 20260505073556 | 60 | 229 | 1.7 | 2.6 | 0.00 | 0.00 | 0.00 | 70 | 1012.0 |
| 20260505073055 | 59 | 216 | 1.7 | 1.7 | 0.00 | 0.00 | 0.00 | 70 | 1012.0 |
| 20260505072549 | 59 | 218 | 1.7 | 1.7 | 0.00 | 0.00 | 0.00 | 70 | 1011.9 |
| 20260505072046 | 59 | 240 | 1.7 | 1.7 | 0.00 | 0.00 | 0.00 | 70 | 1011.9 |
| 20260505071541 | 59 | 210 | 1.7 | 1.7 | 0.00 | 0.00 | 0.00 | 70 | 1012.0 |
| 20260505071040 | 59 | 224 | 1.7 | 1.7 | 0.00 | 0.00 | 0.00 | 70 | 1012.0 |
| 20260505070537 | 59 | 234 | 1.7 | 1.7 | 0.00 | 0.00 | 0.00 | 70 | 1012.0 |
| 20260505070033 | 59 | 254 | 0.9 | 0.9 | 0.00 | 0.00 | 0.00 | 70 | 1011.7 |
| 20260505065529 | 59 | 209 | 1.7 | 1.7 | 0.00 | 0.00 | 0.00 | 70 | 1011.9 |
| 20260505065026 | 59 | 178 | 1.7 | 2.6 | 0.00 | 0.00 | 0.00 | 70 | 1011.7 |
| 20260505064523 | 59 | 217 | 2.6 | 4.3 | 0.00 | 0.00 | 0.00 | 70 | 1011.8 |
| 20260505064022 | 59 | 193 | 1.7 | 2.6 | 0.00 | 0.00 | 0.00 | 70 | 1011.6 |
| 20260505063518 | 59 | 234 | 2.6 | 2.6 | 0.00 | 0.00 | 0.00 | 70 | 1011.9 |
| 20260505063013 | 59 | 240 | 4.3 | 6.1 | 0.00 | 0.00 | 0.00 | 70 | 1011.9 |
| 20260505062511 | 59 | 184 | 2.6 | 4.3 | 0.00 | 0.00 | 0.00 | 70 | 1012.0 |
| 20260505062008 | 59 | 270 | 3.5 | 4.3 | 0.00 | 0.00 | 0.00 | 70 | 1011.9 |
| 20260505061505 | 59 | 244 | 1.7 | 1.7 | 0.00 | 0.00 | 0.00 | 69 | 1011.9 |
| 20260505061003 | 59 | 217 | 2.6 | 2.6 | 0.00 | 0.00 | 0.00 | 69 | 1011.9 |
| 20260505060500 | 59 | 226 | 2.6 | 4.3 | 0.00 | 0.00 | 0.00 | 69 | 1012.0 |
| 20260505055956 | 59 | 179 | 2.6 | 2.6 | 0.00 | 0.00 | 0.00 | 68 | 1011.9 |
| 20260505055452 | 59 | 223 | 2.6 | 2.6 | 0.00 | 0.00 | 0.00 | 68 | 1011.8 |
| 20260505054949 | 59 | 248 | 1.7 | 2.6 | 0.00 | 0.00 | 0.00 | 68 | 1012.0 |
| 20260505054446 | 59 | 235 | 2.6 | 2.6 | 0.00 | 0.00 | 0.00 | 68 | 1011.9 |
| 20260505053944 | 60 | 212 | 2.6 | 2.6 | 0.00 | 0.00 | 0.00 | 67 | 1011.9 |
| 20260505053441 | 60 | 185 | 2.6 | 4.3 | 0.00 | 0.00 | 0.00 | 66 | 1012.0 |
| 20260505052938 | 60 | 245 | 2.6 | 2.6 | 0.00 | 0.00 | 0.00 | 66 | 1011.8 |
| 20260505052435 | 60 | 243 | 3.5 | 5.2 | 0.00 | 0.00 | 0.00 | 66 | 1012.0 |
| 20260505051932 | 60 | 217 | 2.6 | 2.6 | 0.00 | 0.00 | 0.00 | 65 | 1012.0 |
| 20260505051429 | 60 | 182 | 2.6 | 2.6 | 0.00 | 0.00 | 0.00 | 65 | 1012.0 |
| 20260505050927 | 60 | 178 | 1.7 | 2.6 | 0.00 | 0.00 | 0.00 | 64 | 1012.1 |
| 20260505050425 | 60 | 175 | 4.3 | 5.2 | 0.00 | 0.00 | 0.00 | 63 | 1012.1 |
| 20260505041352 | 61 | 225 | 3.5 | 6.1 | 0.00 | 0.00 | 0.00 | 57 | 1011.9 |
| 20260505040849 | 61 | 188 | 3.5 | 5.2 | 0.00 | 0.00 | 0.00 | 57 | 1011.9 |
| 20260505040347 | 61 | 235 | 2.6 | 2.6 | 0.00 | 0.00 | 0.00 | 56 | 1011.7 |
| 20260505035844 | 61 | 260 | 0.9 | 1.7 | 0.00 | 0.00 | 0.00 | 55 | 1011.8 |
| 20260505035339 | 61 | 193 | 4.3 | 4.3 | 0.00 | 0.00 | 0.00 | 55 | 1011.7 |
| 20260505034837 | 61 | 213 | 2.6 | 2.6 | 0.00 | 0.00 | 0.00 | 54 | 1011.9 |
| 20260505034333 | 62 | 246 | 2.6 | 2.6 | 0.00 | 0.00 | 0.00 | 54 | 1011.7 |
| 20260505033831 | 62 | 244 | 2.6 | 4.3 | 0.00 | 0.00 | 0.00 | 53 | 1011.9 |
| 20260505033327 | 62 | 206 | 1.7 | 2.6 | 0.00 | 0.00 | 0.00 | 53 | 1012.0 |
| 20260505032826 | 62 | 202 | 3.5 | 4.3 | 0.00 | 0.00 | 0.00 | 52 | 1011.8 |
| 20260505032321 | 62 | 183 | 4.3 | 5.2 | 0.00 | 0.00 | 0.00 | 52 | 1012.0 |
| 20260505031819 | 63 | 184 | 3.5 | 5.2 | 0.00 | 0.00 | 0.00 | 51 | 1012.0 |
| 20260505031315 | 63 | 187 | 2.6 | 4.3 | 0.00 | 0.00 | 0.00 | 51 | 1012.0 |
| 20260505030813 | 63 | 186 | 4.3 | 5.2 | 0.00 | 0.00 | 0.00 | 51 | 1012.1 |
| 20260505030310 | 63 | 188 | 3.5 | 4.3 | 0.00 | 0.00 | 0.00 | 50 | 1012.0 |
| 20260505025804 | 63 | 216 | 3.5 | 5.2 | 0.00 | 0.00 | 0.00 | 50 | 1012.1 |
| 20260505025304 | 64 | 240 | 1.7 | 1.7 | 0.00 | 0.00 | 0.00 | 50 | 1012.0 |
| 20260505024800 | 64 | 190 | 4.3 | 7.0 | 0.00 | 0.00 | 0.00 | 50 | 1012.0 |
| 20260505024258 | 64 | 192 | 4.3 | 5.2 | 0.00 | 0.00 | 0.00 | 50 | 1012.3 |
| 20260505023755 | 64 | 232 | 3.5 | 5.2 | 0.00 | 0.00 | 0.00 | 50 | 1012.3 |
| 20260505023252 | 64 | 181 | 3.5 | 4.3 | 0.00 | 0.00 | 0.00 | 50 | 1012.1 |
| 20260505022750 | 64 | 190 | 2.6 | 2.6 | 0.00 | 0.00 | 0.00 | 50 | 1012.3 |
| 20260505022246 | 64 | 198 | 2.6 | 2.6 | 0.00 | 0.00 | 0.00 | 50 | 1012.2 |
| 20260505021742 | 64 | 240 | 2.6 | 2.6 | 0.00 | 0.00 | 0.00 | 49 | 1012.3 |
| 20260505021240 | 64 | 204 | 2.6 | 4.3 | 0.00 | 0.00 | 0.00 | 49 | 1012.2 |
| 20260505020735 | 64 | 261 | 1.7 | 2.6 | 0.00 | 0.00 | 0.00 | 49 | 1012.2 |
| 20260505020231 | 64 | 187 | 2.6 | 4.3 | 0.00 | 0.00 | 0.00 | 48 | 1012.2 |
| 20260505015728 | 64 | 236 | 2.6 | 4.3 | 0.00 | 0.00 | 0.00 | 48 | 1012.2 |
| 20260505015225 | 65 | 233 | 2.6 | 4.3 | 0.00 | 0.00 | 0.00 | 48 | 1012.2 |
| 20260505014722 | 65 | 223 | 1.7 | 1.7 | 0.00 | 0.00 | 0.00 | 48 | 1012.1 |
| 20260505014220 | 65 | 207 | 0.9 | 1.7 | 0.00 | 0.00 | 0.00 | 48 | 1012.2 |
| 20260505013716 | 65 | 249 | 1.7 | 1.7 | 0.00 | 0.00 | 0.00 | 47 | 1012.0 |
| 20260505013213 | 65 | 226 | 3.5 | 4.3 | 0.00 | 0.00 | 0.00 | 47 | 1012.1 |
| 20260505012711 | 65 | 209 | 3.5 | 4.3 | 0.00 | 0.00 | 0.00 | 47 | 1012.0 |
| 20260505012208 | 66 | 195 | 2.6 | 4.3 | 0.00 | 0.00 | 0.00 | 46 | 1012.1 |
| 20260505011704 | 66 | 181 | 2.6 | 2.6 | 0.00 | 0.00 | 0.00 | 45 | 1012.1 |
| 20260505011201 | 66 | 177 | 3.5 | 4.3 | 0.00 | 0.00 | 0.00 | 45 | 1012.1 |
| 20260505010656 | 66 | 235 | 1.7 | 2.6 | 0.00 | 0.00 | 0.00 | 45 | 1011.9 |
| 20260505010154 | 66 | 223 | 3.5 | 5.2 | 0.00 | 0.00 | 0.00 | 45 | 1012.0 |
| 20260505005650 | 66 | 174 | 3.5 | 5.2 | 0.00 | 0.00 | 0.00 | 46 | 1011.8 |
| 20260505005147 | 66 | 216 | 1.7 | 1.7 | 0.00 | 0.00 | 0.00 | 45 | 1011.7 |
| 20260505004644 | 66 | 231 | 0.9 | 0.9 | 0.00 | 0.00 | 0.00 | 45 | 1011.8 |
| 20260505004140 | 66 | 231 | 0.9 | 1.7 | 0.00 | 0.00 | 0.00 | 44 | 1011.7 |
| 20260505003638 | 66 | 204 | 1.7 | 2.6 | 0.00 | 0.00 | 0.00 | 44 | 1011.5 |
| 20260505003135 | 66 | 233 | 1.7 | 1.7 | 0.00 | 0.00 | 0.00 | 44 | 1011.6 |
| 20260505002631 | 66 | 243 | 1.7 | 1.7 | 0.00 | 0.00 | 0.00 | 43 | 1011.5 |
| 20260505002129 | 67 | 247 | 0.9 | 0.9 | 0.00 | 0.00 | 0.00 | 44 | 1011.5 |
| 20260505001626 | 67 | 246 | 1.7 | 1.7 | 0.00 | 0.00 | 0.00 | 43 | 1011.4 |
| 20260505001124 | 67 | 185 | 1.7 | 2.6 | 0.00 | 0.00 | 0.00 | 43 | 1011.5 |
| 20260505000620 | 67 | 254 | 0.9 | 0.9 | 0.00 | 0.00 | 0.00 | 43 | 1011.5 |
| 20260505000119 | 67 | 254 | 0.9 | 0.9 | 0.00 | 0.00 | 0.00 | 43 | 1011.6 |
| 20260504235615 | 67 | 251 | 0.9 | 1.7 | 0.00 | 0.00 | 0.00 | 42 | 1011.6 |
| 20260504235111 | 67 | 248 | 1.7 | 1.7 | 0.00 | 0.00 | 0.00 | 42 | 1011.4 |
| 20260504234608 | 67 | 249 | 0.9 | 1.7 | 0.00 | 0.00 | 0.00 | 42 | 1011.5 |
| 20260504234106 | 68 | 256 | 0.9 | 0.9 | 0.00 | 0.00 | 0.00 | 41 | 1011.3 |
| 20260504233602 | 68 | 191 | 1.7 | 1.7 | 0.00 | 0.00 | 0.00 | 41 | 1011.4 |
| 20260504233058 | 68 | 260 | 0.0 | 0.9 | 0.00 | 0.00 | 0.00 | 41 | 1011.5 |
| 20260504232555 | 68 | 250 | 1.7 | 1.7 | 0.00 | 0.00 | 0.00 | 41 | 1011.4 |
| 20260504232053 | 68 | 186 | 2.6 | 2.6 | 0.00 | 0.00 | 0.00 | 40 | 1011.3 |
| 20260504231549 | 68 | 225 | 2.6 | 4.3 | 0.00 | 0.00 | 0.00 | 41 | 1011.2 |
| 20260504231045 | 68 | 262 | 0.9 | 1.7 | 0.00 | 0.00 | 0.00 | 40 | 1011.4 |
| 20260504230542 | 68 | 243 | 1.7 | 1.7 | 0.00 | 0.00 | 0.00 | 42 | 1011.4 |
| 20260504230041 | 68 | 256 | 0.9 | 0.9 | 0.00 | 0.00 | 0.00 | 41 | 1011.4 |
| 20260504225538 | 68 | 247 | 1.7 | 1.7 | 0.00 | 0.00 | 0.00 | 40 | 1011.3 |
| 20260504225035 | 69 | 250 | 0.9 | 0.9 | 0.00 | 0.00 | 0.00 | 39 | 1011.4 |
| 20260504224531 | 69 | 262 | 1.7 | 1.7 | 0.00 | 0.00 | 0.00 | 40 | 1011.5 |
| 20260504224028 | 69 | 259 | 0.9 | 0.9 | 0.00 | 0.00 | 0.00 | 39 | 1011.2 |
| 20260504223525 | 69 | 254 | 1.7 | 1.7 | 0.00 | 0.00 | 0.00 | 39 | 1011.6 |
| 20260504223021 | 69 | 190 | 4.3 | 6.1 | 0.00 | 0.00 | 0.00 | 39 | 1011.4 |
| 20260504222518 | 69 | 207 | 3.5 | 4.3 | 0.00 | 0.00 | 0.00 | 39 | 1011.6 |
| 20260504222016 | 69 | 209 | 3.5 | 4.3 | 0.00 | 0.00 | 0.00 | 38 | 1011.3 |
| 20260504221513 | 69 | 277 | 0.9 | 0.9 | 0.00 | 0.00 | 0.00 | 38 | 1011.4 |
| 20260504221009 | 69 | 274 | 1.7 | 1.7 | 0.00 | 0.00 | 0.00 | 38 | 1011.4 |
| 20260504220506 | 69 | 262 | 1.7 | 2.6 | 0.00 | 0.00 | 0.00 | 38 | 1011.5 |
| 20260504220003 | 69 | 257 | 0.9 | 0.9 | 0.00 | 0.00 | 0.00 | 38 | 1011.5 |
| 20260504215459 | 69 | 262 | 2.6 | 4.3 | 0.00 | 0.00 | 0.00 | 38 | 1011.6 |
| 20260504214956 | 69 | 223 | 2.6 | 2.6 | 0.00 | 0.00 | 0.00 | 37 | 1011.5 |
| 20260504214453 | 69 | 262 | 0.9 | 1.7 | 0.00 | 0.00 | 0.00 | 37 | 1011.5 |
| 20260504213949 | 69 | 199 | 2.6 | 2.6 | 0.00 | 0.00 | 0.00 | 38 | 1011.7 |
| 20260504213445 | 70 | 266 | 1.7 | 1.7 | 0.00 | 0.00 | 0.00 | 37 | 1011.6 |
| 20260504212943 | 69 | 286 | 1.7 | 2.6 | 0.00 | 0.00 | 0.00 | 38 | 1011.6 |
| 20260504212438 | 69 | 246 | 0.0 | 0.9 | 0.00 | 0.00 | 0.00 | 38 | 1011.8 |
| 20260504211936 | 69 | 240 | 2.6 | 2.6 | 0.00 | 0.00 | 0.00 | 38 | 1011.7 |
| 20260504211432 | 70 | 206 | 2.6 | 4.3 | 0.00 | 0.00 | 0.00 | 38 | 1011.5 |
| 20260504210930 | 70 | 254 | 0.9 | 1.7 | 0.00 | 0.00 | 0.00 | 38 | 1011.5 |
| 20260504210427 | 70 | 203 | 1.7 | 1.7 | 0.00 | 0.00 | 0.00 | 38 | 1011.5 |
| 20260504205924 | 70 | 226 | 1.7 | 1.7 | 0.00 | 0.00 | 0.00 | 38 | 1011.5 |
| 20260504205421 | 69 | 245 | 0.9 | 0.9 | 0.00 | 0.00 | 0.00 | 38 | 1011.8 |
| 20260504204919 | 69 | 245 | 0.9 | 1.7 | 0.00 | 0.00 | 0.00 | 38 | 1011.4 |
| 20260504204417 | 69 | 184 | 2.6 | 2.6 | 0.00 | 0.00 | 0.00 | 38 | 1011.4 |
| 20260504203916 | 69 | 204 | 2.6 | 2.6 | 0.00 | 0.00 | 0.00 | 38 | 1011.5 |
| 20260504203414 | 70 | 181 | 3.5 | 5.2 | 0.00 | 0.00 | 0.00 | 37 | 1011.6 |
| 20260504202909 | 70 | 245 | 1.7 | 2.6 | 0.00 | 0.00 | 0.00 | 37 | 1011.8 |
| 20260504202406 | 70 | 262 | 0.9 | 1.7 | 0.00 | 0.00 | 0.00 | 37 | 1011.7 |
| 20260504201903 | 70 | 211 | 1.7 | 1.7 | 0.00 | 0.00 | 0.00 | 37 | 1011.7 |
| 20260504201401 | 70 | 239 | 1.7 | 1.7 | 0.00 | 0.00 | 0.00 | 36 | 1011.7 |
| 20260504200857 | 70 | 240 | 2.6 | 2.6 | 0.00 | 0.00 | 0.00 | 36 | 1011.9 |
| 20260504200354 | 70 | 248 | 2.6 | 2.6 | 0.00 | 0.00 | 0.00 | 37 | 1011.9 |
| 20260504195851 | 70 | 250 | 2.6 | 4.3 | 0.00 | 0.00 | 0.00 | 37 | 1011.8 |
| 20260504195346 | 70 | 232 | 2.6 | 2.6 | 0.00 | 0.00 | 0.00 | 37 | 1012.0 |
| 20260504194843 | 70 | 240 | 1.7 | 1.7 | 0.00 | 0.00 | 0.00 | 36 | 1012.0 |
| 20260504194339 | 71 | 283 | 1.7 | 2.6 | 0.00 | 0.00 | 0.00 | 36 | 1011.9 |
| 20260504193835 | 71 | 233 | 3.5 | 4.3 | 0.00 | 0.00 | 0.00 | 36 | 1011.9 |
| 20260504193333 | 71 | 278 | 0.9 | 1.7 | 0.00 | 0.00 | 0.00 | 35 | 1012.0 |
| 20260504192831 | 71 | 271 | 1.7 | 1.7 | 0.00 | 0.00 | 0.00 | 36 | 1012.1 |
| 20260504192329 | 70 | 132 | 1.7 | 2.6 | 0.00 | 0.00 | 0.00 | 36 | 1012.2 |
| 20260504191827 | 71 | 229 | 2.6 | 2.6 | 0.00 | 0.00 | 0.00 | 35 | 1012.1 |
| 20260504191324 | 71 | 268 | 1.7 | 2.6 | 0.00 | 0.00 | 0.00 | 35 | 1012.3 |
| 20260504190820 | 71 | 217 | 1.7 | 2.6 | 0.00 | 0.00 | 0.00 | 35 | 1012.4 |
| 20260504190316 | 71 | 187 | 3.5 | 6.1 | 0.00 | 0.00 | 0.00 | 36 | 1012.3 |
| 20260504185813 | 71 | 343 | 2.6 | 2.6 | 0.00 | 0.00 | 0.00 | 35 | 1012.6 |
| 20260504185310 | 71 | 179 | 1.7 | 2.6 | 0.00 | 0.00 | 0.00 | 35 | 1012.6 |
| 20260504184806 | 72 | 179 | 2.6 | 4.3 | 0.00 | 0.00 | 0.00 | 34 | 1012.7 |
| 20260504184302 | 72 | 293 | 0.9 | 0.9 | 0.00 | 0.00 | 0.00 | 34 | 1012.7 |
| 20260504183758 | 73 | 207 | 0.9 | 2.6 | 0.00 | 0.00 | 0.00 | 34 | 1012.7 |
| 20260504183255 | 72 | 270 | 0.9 | 1.7 | 0.00 | 0.00 | 0.00 | 36 | 1012.9 |
| 20260504182753 | 71 | 185 | 1.7 | 2.6 | 0.00 | 0.00 | 0.00 | 35 | 1012.9 |
| 20260504182249 | 72 | 269 | 3.5 | 4.3 | 0.00 | 0.00 | 0.00 | 33 | 1013.0 |
| 20260504181747 | 72 | 201 | 0.9 | 0.9 | 0.00 | 0.00 | 0.00 | 34 | 1012.9 |
| 20260504181244 | 72 | 162 | 2.6 | 4.3 | 0.00 | 0.00 | 0.00 | 34 | 1013.0 |
| 20260504180743 | 72 | 193 | 4.3 | 4.3 | 0.00 | 0.00 | 0.00 | 34 | 1013.0 |
| 20260504180242 | 73 | 257 | 2.6 | 2.6 | 0.00 | 0.00 | 0.00 | 33 | 1013.1 |
| 20260504175739 | 74 | 302 | 0.9 | 0.9 | 0.00 | 0.00 | 0.00 | 33 | 1013.3 |
| 20260504175236 | 74 | 289 | 0.9 | 0.9 | 0.00 | 0.00 | 0.00 | 33 | 1013.3 |
| 20260504174734 | 73 | 252 | 0.9 | 0.9 | 0.00 | 0.00 | 0.00 | 34 | 1013.5 |
| 20260504174232 | 73 | 278 | 2.6 | 2.6 | 0.00 | 0.00 | 0.00 | 34 | 1013.6 |
| 20260504173727 | 73 | 256 | 1.7 | 1.7 | 0.00 | 0.00 | 0.00 | 34 | 1013.3 |
| 20260504173225 | 73 | 236 | 1.7 | 4.3 | 0.00 | 0.00 | 0.00 | 34 | 1013.6 |
| 20260504172721 | 71 | 294 | 0.0 | 0.0 | 0.00 | 0.00 | 0.00 | 33 | 1013.7 |
| 20260504172218 | 72 | 278 | 1.7 | 1.7 | 0.00 | 0.00 | 0.00 | 35 | 1013.4 |
| 20260504171714 | 72 | 256 | 2.6 | 2.6 | 0.00 | 0.00 | 0.00 | 34 | 1013.8 |
| 20260504171211 | 71 | 252 | 1.7 | 2.6 | 0.00 | 0.00 | 0.00 | 34 | 1013.6 |
| 20260504170708 | 71 | 187 | 2.6 | 4.3 | 0.00 | 0.00 | 0.00 | 33 | 1013.9 |
| 20260504170206 | 71 | 276 | 1.7 | 2.6 | 0.00 | 0.00 | 0.00 | 34 | 1014.1 |
| 20260504160124 | 71 | 283 | 0.9 | 0.9 | 0.00 | 0.00 | 0.00 | 38 | 1014.8 |
| 20260504151051 | 68 | 212 | 2.6 | 2.6 | 0.00 | 0.00 | 0.00 | 38 | 1015.2 |
| 20260504150548 | 68 | 280 | 0.9 | 1.7 | 0.00 | 0.00 | 0.00 | 37 | 1015.1 |
| 20260504141015 | 64 | 196 | 3.5 | 4.3 | 0.00 | 0.00 | 0.00 | 50 | 1015.2 |
| 20260504140511 | 63 | 245 | 0.9 | 1.7 | 0.00 | 0.00 | 0.00 | 50 | 1015.2 |